TimeEST,TemperatureF,Dew PointF,Humidity,Sea Level PressureIn,VisibilityMPH,Wind Direction,Wind SpeedMPH,Gust SpeedMPH,PrecipitationIn,Events,Conditions,WindDirDegrees,DateUTC
12:54 AM,35.1,35.1,100,30.00,0.2,Calm,Calm,-,N/A,Fog,Fog,0,2012-12-09 05:54:00
1:16 AM,35.6,35.6,100,29.99,0.2,Calm,Calm,-,N/A,Fog,Fog,0,2012-12-09 06:16:00
1:24 AM,35.6,33.8,93,30.00,0.5,Calm,Calm,-,N/A,Fog,Fog,0,2012-12-09 06:24:00
1:35 AM,35.6,35.6,100,30.00,1.5,Calm,Calm,-,N/A,,Overcast,0,2012-12-09 06:35:00
1:54 AM,35.1,35.1,100,30.04,2.5,Calm,Calm,-,N/A,,Overcast,0,2012-12-09 06:54:00
2:02 AM,35.6,33.8,93,30.02,3.0,Calm,Calm,-,N/A,,Overcast,0,2012-12-09 07:02:00
2:17 AM,35.6,33.8,93,30.03,2.5,Calm,Calm,-,N/A,,Overcast,0,2012-12-09 07:17:00
2:29 AM,35.6,33.8,93,30.03,3.0,Calm,Calm,-,N/A,,Overcast,0,2012-12-09 07:29:00
2:54 AM,42.1,35.1,76,30.06,10.0,Variable,4.6,-,N/A,,Overcast,0,2012-12-09 07:54:00
3:54 AM,41.0,33.1,73,30.08,10.0,NW,6.9,-,N/A,,Partly Cloudy,310,2012-12-09 08:54:00
4:54 AM,39.0,30.9,73,30.13,10.0,Calm,Calm,-,N/A,,Partly Cloudy,0,2012-12-09 09:54:00
5:54 AM,37.9,28.9,70,30.18,10.0,NNW,4.6,-,N/A,,Clear,330,2012-12-09 10:54:00
6:54 AM,37.9,27.0,65,30.22,10.0,Calm,Calm,-,N/A,,Scattered Clouds,0,2012-12-09 11:54:00
7:54 AM,34.0,28.0,79,30.25,10.0,Calm,Calm,-,N/A,,Clear,0,2012-12-09 12:54:00
8:54 AM,33.1,30.0,89,30.27,10.0,West,4.6,-,N/A,,Clear,260,2012-12-09 13:54:00
9:54 AM,36.0,30.9,82,30.29,10.0,Calm,Calm,-,N/A,,Clear,0,2012-12-09 14:54:00
10:54 AM,39.0,28.0,65,30.28,10.0,Calm,Calm,-,N/A,,Clear,0,2012-12-09 15:54:00
11:54 AM,42.1,27.0,55,30.26,10.0,Variable,3.5,-,N/A,,Clear,0,2012-12-09 16:54:00
12:54 PM,42.1,24.1,49,30.25,10.0,Variable,5.8,-,N/A,,Partly Cloudy,0,2012-12-09 17:54:00
1:54 PM,44.1,21.9,42,30.25,10.0,Variable,3.5,-,N/A,,Clear,0,2012-12-09 18:54:00
2:54 PM,43.0,23.0,45,30.25,10.0,NE,5.8,-,N/A,,Clear,40,2012-12-09 19:54:00
3:54 PM,41.0,24.1,51,30.26,10.0,NE,3.5,-,N/A,,Clear,50,2012-12-09 20:54:00
4:54 PM,37.0,26.1,65,30.27,10.0,Calm,Calm,-,N/A,,Partly Cloudy,0,2012-12-09 21:54:00
5:54 PM,33.1,27.0,78,30.30,10.0,Calm,Calm,-,N/A,,Mostly Cloudy,0,2012-12-09 22:54:00
6:54 PM,30.0,27.0,88,30.29,10.0,Calm,Calm,-,N/A,,Overcast,0,2012-12-09 23:54:00
7:54 PM,30.9,28.0,89,30.28,10.0,Calm,Calm,-,N/A,,Overcast,0,2012-12-10 00:54:00
8:54 PM,32.0,28.0,85,30.25,10.0,Calm,Calm,-,N/A,,Overcast,0,2012-12-10 01:54:00
9:54 PM,32.0,28.9,88,30.22,10.0,Calm,Calm,-,N/A,,Overcast,0,2012-12-10 02:54:00
11:54 PM,32.0,30.0,92,30.16,5.0,Calm,Calm,-,0.04,Rain,Light Freezing Rain,0,2012-12-10 04:54:00